| time (UTC) | temp C | wind direction | speed KPH | gust KPH | rain 1hr cm | rain 24hr cm | rain mn cm | humidity % | barometer mb |
| 20260506061804 | 7 | 56 | 1.6 | 6.4 | 0.00 | 0.00 | 0.00 | 95 | 1012.3 |
| 20260506060904 | 6 | 59 | 1.6 | 11.3 | 0.00 | 0.00 | 0.00 | 95 | 1012.1 |
| 20260506050904 | 7 | 329 | 3.2 | 9.7 | 0.00 | 0.00 | 0.00 | 92 | 1012.2 |
| 20260506044504 | 7 | 306 | 1.6 | 9.7 | 0.00 | 0.00 | 0.00 | 89 | 1012.3 |
| 20260506043604 | 7 | 336 | 1.6 | 4.8 | 0.00 | 0.00 | 0.00 | 88 | 1012.1 |
| 20260506042704 | 7 | 357 | 1.6 | 9.7 | 0.00 | 0.00 | 0.00 | 88 | 1012.2 |
| 20260506041804 | 7 | 76 | 1.6 | 4.8 | 0.00 | 0.00 | 0.00 | 89 | 1012.4 |
| 20260506040904 | 7 | 57 | 1.6 | 6.4 | 0.00 | 0.00 | 0.00 | 89 | 1012.3 |
| 20260506040004 | 7 | 21 | 1.6 | 6.4 | 0.00 | 0.00 | 0.00 | 89 | 1012.3 |
| 20260506035404 | 7 | 53 | 1.6 | 6.4 | 0.00 | 0.00 | 0.00 | 89 | 1012.3 |
| 20260506034504 | 7 | 52 | 1.6 | 9.7 | 0.00 | 0.00 | 0.00 | 89 | 1012.1 |
| 20260506033604 | 7 | 74 | 1.6 | 9.7 | 0.00 | 0.00 | 0.00 | 88 | 1012.3 |
| 20260506032704 | 7 | 14 | 1.6 | 6.4 | 0.00 | 0.00 | 0.00 | 88 | 1012.2 |
| 20260506031803 | 7 | 79 | 1.6 | 6.4 | 0.00 | 0.00 | 0.00 | 89 | 1012.2 |
| 20260506030904 | 7 | 68 | 1.6 | 12.9 | 0.00 | 0.00 | 0.00 | 89 | 1012.3 |
| 20260506030004 | 7 | 50 | 1.6 | 4.8 | 0.00 | 0.00 | 0.00 | 89 | 1012.7 |
| 20260506025404 | 7 | 59 | 1.6 | 6.4 | 0.00 | 0.00 | 0.00 | 90 | 1012.7 |
| 20260506024503 | 7 | 339 | 1.6 | 6.4 | 0.00 | 0.00 | 0.00 | 90 | 1012.9 |
| 20260506023604 | 7 | 256 | 1.6 | 4.8 | 0.00 | 0.00 | 0.00 | 87 | 1012.5 |
| 20260506022705 | 7 | 315 | 1.6 | 6.4 | 0.00 | 0.00 | 0.00 | 91 | 1012.6 |
| 20260506021803 | 7 | 345 | 1.6 | 14.5 | 0.00 | 0.00 | 0.00 | 91 | 1012.6 |
| 20260506020904 | 7 | 326 | 1.6 | 14.5 | 0.00 | 0.00 | 0.00 | 91 | 1012.8 |
| 20260506020004 | 7 | 310 | 1.6 | 6.4 | 0.00 | 0.00 | 0.00 | 90 | 1012.7 |
| 20260506015403 | 7 | 333 | 3.2 | 14.5 | 0.00 | 0.00 | 0.00 | 90 | 1012.9 |
| 20260506014503 | 7 | 342 | 6.4 | 14.5 | 0.00 | 0.00 | 0.00 | 89 | 1013.0 |
| 20260506013603 | 7 | 347 | 3.2 | 14.5 | 0.00 | 0.00 | 0.00 | 88 | 1012.9 |
| 20260506012703 | 7 | 10 | 1.6 | 4.8 | 0.00 | 0.00 | 0.00 | 87 | 1012.9 |
| 20260506011803 | 7 | 25 | 1.6 | 6.4 | 0.00 | 0.00 | 0.00 | 86 | 1012.7 |
| 20260506010903 | 7 | 312 | 1.6 | 3.2 | 0.00 | 0.00 | 0.00 | 85 | 1013.2 |
| 20260506010003 | 6 | 5 | 1.6 | 9.7 | 0.00 | 0.00 | 0.00 | 85 | 1012.9 |
| 20260506005403 | 6 | 15 | 1.6 | 3.2 | 0.00 | 0.00 | 0.00 | 84 | 1013.4 |
| 20260506004504 | 6 | 53 | 1.6 | 6.4 | 0.00 | 0.00 | 0.00 | 83 | 1013.0 |
| 20260506003603 | 6 | 288 | 1.6 | 4.8 | 0.00 | 0.00 | 0.00 | 83 | 1013.4 |
| 20260506002703 | 7 | 39 | 1.6 | 9.7 | 0.00 | 0.00 | 0.00 | 84 | 1013.2 |
| 20260506001803 | 7 | 45 | 1.6 | 6.4 | 0.00 | 0.00 | 0.00 | 82 | 1013.5 |
| 20260506000904 | 7 | 96 | 1.6 | 9.7 | 0.00 | 0.00 | 0.00 | 84 | 1013.2 |
| 20260506000003 | 7 | 112 | 1.6 | 4.8 | 0.00 | 0.00 | 0.00 | 85 | 1013.4 |
| 20260505235403 | 7 | 61 | 1.6 | 6.4 | 0.00 | 0.00 | 0.00 | 85 | 1013.4 |
| 20260505234503 | 7 | 58 | 1.6 | 6.4 | 0.00 | 0.00 | 0.00 | 85 | 1013.6 |
| 20260505233603 | 7 | 48 | 3.2 | 9.7 | 0.00 | 0.00 | 0.00 | 87 | 1013.7 |
| 20260505232703 | 7 | 36 | 1.6 | 11.3 | 0.00 | 0.00 | 0.00 | 87 | 1013.5 |
| 20260505231803 | 7 | 66 | 1.6 | 6.4 | 0.00 | 0.00 | 0.00 | 87 | 1013.6 |
| 20260505230903 | 7 | 52 | 1.6 | 9.7 | 0.00 | 0.00 | 0.00 | 87 | 1013.7 |
| 20260505230003 | 7 | 49 | 1.6 | 9.7 | 0.00 | 0.00 | 0.00 | 86 | 1013.7 |
| 20260505225403 | 8 | 41 | 1.6 | 9.7 | 0.00 | 0.00 | 0.00 | 86 | 1013.8 |
| 20260505224503 | 8 | 81 | 1.6 | 9.7 | 0.00 | 0.00 | 0.00 | 85 | 1013.7 |
| 20260505223603 | 7 | 44 | 1.6 | 11.3 | 0.00 | 0.00 | 0.00 | 84 | 1013.7 |
| 20260505222703 | 7 | 41 | 1.6 | 6.4 | 0.00 | 0.00 | 0.00 | 84 | 1013.8 |
| 20260505221803 | 8 | 65 | 1.6 | 6.4 | 0.00 | 0.00 | 0.00 | 83 | 1014.0 |
| 20260505220903 | 7 | 69 | 1.6 | 6.4 | 0.00 | 0.00 | 0.00 | 83 | 1013.9 |
| 20260505220003 | 8 | 71 | 1.6 | 6.4 | 0.00 | 0.00 | 0.00 | 83 | 1013.8 |
| 20260505215403 | 8 | 51 | 1.6 | 4.8 | 0.00 | 0.00 | 0.00 | 84 | 1014.0 |
| 20260505214503 | 8 | 65 | 1.6 | 6.4 | 0.00 | 0.00 | 0.00 | 83 | 1013.9 |
| 20260505213603 | 8 | 56 | 1.6 | 11.3 | 0.00 | 0.00 | 0.00 | 83 | 1013.9 |
| 20260505212703 | 8 | 43 | 1.6 | 6.4 | 0.00 | 0.00 | 0.00 | 85 | 1014.1 |
| 20260505211806 | 8 | 48 | 1.6 | 11.3 | 0.00 | 0.00 | 0.00 | 85 | 1014.0 |
| 20260505210906 | 8 | 39 | 1.6 | 6.4 | 0.00 | 0.00 | 0.00 | 86 | 1013.9 |
| 20260505210006 | 8 | 70 | 1.6 | 9.7 | 0.00 | 0.00 | 0.00 | 85 | 1014.0 |
| 20260505205406 | 8 | 76 | 1.6 | 9.7 | 0.00 | 0.00 | 0.00 | 85 | 1014.0 |
| 20260505204506 | 8 | 58 | 1.6 | 11.3 | 0.00 | 0.00 | 0.00 | 84 | 1013.9 |
| 20260505203606 | 8 | 86 | 1.6 | 11.3 | 0.00 | 0.00 | 0.00 | 83 | 1013.8 |
| 20260505202706 | 8 | 50 | 1.6 | 6.4 | 0.00 | 0.00 | 0.00 | 84 | 1013.8 |
| 20260505201806 | 8 | 14 | 1.6 | 9.7 | 0.00 | 0.00 | 0.00 | 85 | 1014.0 |
| 20260505200906 | 8 | 67 | 1.6 | 11.3 | 0.00 | 0.00 | 0.00 | 87 | 1013.8 |
| 20260505200006 | 8 | 71 | 3.2 | 11.3 | 0.00 | 0.00 | 0.00 | 87 | 1013.8 |
| 20260505195405 | 8 | 79 | 3.2 | 11.3 | 0.00 | 0.00 | 0.00 | 87 | 1013.7 |
| 20260505194506 | 8 | 48 | 1.6 | 11.3 | 0.00 | 0.00 | 0.00 | 88 | 1013.8 |
| 20260505193605 | 8 | 58 | 1.6 | 9.7 | 0.00 | 0.00 | 0.00 | 88 | 1013.8 |
| 20260505192705 | 9 | 97 | 3.2 | 12.9 | 0.00 | 0.00 | 0.00 | 87 | 1013.5 |
| 20260505191805 | 9 | 57 | 1.6 | 6.4 | 0.00 | 0.00 | 0.00 | 87 | 1013.5 |
| 20260505190906 | 9 | 46 | 3.2 | 14.5 | 0.00 | 0.00 | 0.00 | 88 | 1013.2 |
| 20260505190005 | 9 | 68 | 3.2 | 11.3 | 0.00 | 0.00 | 0.00 | 88 | 1013.4 |
| 20260505185405 | 9 | 88 | 3.2 | 11.3 | 0.00 | 0.00 | 0.00 | 88 | 1013.2 |
| 20260505184505 | 9 | 56 | 1.6 | 14.5 | 0.00 | 0.00 | 0.00 | 88 | 1013.1 |
| 20260505183605 | 10 | 47 | 1.6 | 9.7 | 0.00 | 0.00 | 0.00 | 87 | 1013.1 |
| 20260505182705 | 10 | 54 | 1.6 | 16.1 | 0.00 | 0.00 | 0.00 | 86 | 1013.0 |
| 20260505181805 | 10 | 59 | 1.6 | 6.4 | 0.00 | 0.00 | 0.00 | 86 | 1012.9 |
| 20260505180905 | 10 | 46 | 1.6 | 11.3 | 0.00 | 0.00 | 0.00 | 85 | 1012.9 |
| 20260505180005 | 10 | 52 | 1.6 | 11.3 | 0.00 | 0.00 | 0.00 | 85 | 1013.2 |
| 20260505175405 | 10 | 43 | 1.6 | 11.3 | 0.00 | 0.00 | 0.00 | 85 | 1013.2 |
| 20260505174505 | 10 | 48 | 1.6 | 11.3 | 0.00 | 0.00 | 0.00 | 86 | 1013.0 |
| 20260505173605 | 10 | 55 | 1.6 | 6.4 | 0.00 | 0.00 | 0.00 | 85 | 1013.1 |
| 20260505172706 | 10 | 75 | 1.6 | 4.8 | 0.00 | 0.00 | 0.00 | 84 | 1013.1 |
| 20260505171805 | 10 | 69 | 1.6 | 4.8 | 0.00 | 0.00 | 0.00 | 83 | 1013.0 |
| 20260505170905 | 10 | 8 | 1.6 | 12.9 | 0.00 | 0.00 | 0.00 | 83 | 1013.0 |
| 20260505170005 | 11 | 60 | 1.6 | 9.7 | 0.00 | 0.00 | 0.00 | 82 | 1013.2 |
| 20260505165405 | 11 | 38 | 1.6 | 9.7 | 0.00 | 0.00 | 0.00 | 81 | 1013.0 |
| 20260505164505 | 11 | 13 | 1.6 | 9.7 | 0.00 | 0.00 | 0.00 | 81 | 1012.9 |
| 20260505163605 | 11 | 24 | 3.2 | 12.9 | 0.00 | 0.00 | 0.00 | 81 | 1013.1 |
| 20260505162705 | 11 | 49 | 1.6 | 12.9 | 0.00 | 0.00 | 0.00 | 79 | 1013.0 |
| 20260505161805 | 11 | 43 | 1.6 | 12.9 | 0.00 | 0.00 | 0.00 | 77 | 1012.9 |
| 20260505160905 | 11 | 45 | 1.6 | 9.7 | 0.00 | 0.00 | 0.00 | 79 | 1012.9 |
| 20260505152705 | 13 | 47 | 3.2 | 11.3 | 0.00 | 0.00 | 0.00 | 73 | 1013.0 |
| 20260505151805 | 14 | 38 | 1.6 | 11.3 | 0.00 | 0.00 | 0.00 | 72 | 1012.8 |
| 20260505150905 | 13 | 52 | 1.6 | 9.7 | 0.00 | 0.00 | 0.00 | 74 | 1012.8 |
| 20260505124505 | 15 | 60 | 1.6 | 9.7 | 0.00 | 0.00 | 0.00 | 71 | 1012.9 |
| 20260505123605 | 15 | 38 | 1.6 | 9.7 | 0.00 | 0.00 | 0.00 | 73 | 1013.0 |
| 20260505122705 | 14 | 15 | 1.6 | 11.3 | 0.00 | 0.00 | 0.00 | 73 | 1013.0 |
| 20260505121805 | 15 | 37 | 1.6 | 11.3 | 0.00 | 0.00 | 0.00 | 74 | 1012.7 |
| 20260505120905 | 14 | 37 | 1.6 | 6.4 | 0.00 | 0.00 | 0.00 | 76 | 1012.9 |
| 20260505120005 | 14 | 18 | 1.6 | 6.4 | 0.00 | 0.00 | 0.00 | 76 | 1013.0 |
| 20260505115405 | 13 | 22 | 3.2 | 6.4 | 0.00 | 0.00 | 0.00 | 77 | 1013.1 |
| 20260505114505 | 14 | 19 | 3.2 | 9.7 | 0.00 | 0.00 | 0.00 | 77 | 1013.0 |
| 20260505113605 | 13 | 352 | 3.2 | 9.7 | 0.00 | 0.00 | 0.00 | 78 | 1013.2 |
| 20260505112705 | 13 | 341 | 3.2 | 12.9 | 0.00 | 0.00 | 0.00 | 81 | 1013.1 |
| 20260505111805 | 13 | 336 | 4.8 | 12.9 | 0.00 | 0.00 | 0.00 | 82 | 1013.2 |
| 20260505110905 | 13 | 341 | 3.2 | 9.7 | 0.00 | 0.00 | 0.00 | 82 | 1013.2 |
| 20260505101805 | 11 | 328 | 3.2 | 9.7 | 0.00 | 0.00 | 0.00 | 89 | 1013.4 |
| 20260505100904 | 11 | 325 | 3.2 | 6.4 | 0.00 | 0.00 | 0.00 | 89 | 1013.1 |
| 20260505100004 | 11 | 328 | 4.8 | 9.7 | 0.00 | 0.00 | 0.00 | 88 | 1013.5 |
| 20260505095404 | 11 | 329 | 3.2 | 9.7 | 0.00 | 0.00 | 0.00 | 87 | 1013.2 |
| 20260505094504 | 11 | 317 | 3.2 | 9.7 | 0.00 | 0.00 | 0.00 | 86 | 1013.6 |
| 20260505093604 | 11 | 320 | 3.2 | 4.8 | 0.00 | 0.00 | 0.00 | 87 | 1013.1 |
| 20260505092704 | 11 | 323 | 1.6 | 4.8 | 0.00 | 0.00 | 0.00 | 85 | 1013.6 |
| 20260505091804 | 11 | 284 | 1.6 | 3.2 | 0.00 | 0.00 | 0.00 | 84 | 1013.4 |
| 20260505090905 | 12 | 244 | 1.6 | 3.2 | 0.00 | 0.00 | 0.00 | 85 | 1013.4 |
| 20260505090005 | 11 | 281 | 1.6 | 4.8 | 0.00 | 0.00 | 0.00 | 87 | 1013.5 |
| 20260505085404 | 10 | 303 | 1.6 | 4.8 | 0.00 | 0.00 | 0.00 | 88 | 1013.5 |
| 20260505084504 | 10 | 253 | 1.6 | 3.2 | 0.00 | 0.00 | 0.00 | 87 | 1013.5 |
| 20260505083604 | 10 | 276 | 1.6 | 3.2 | 0.00 | 0.00 | 0.00 | 88 | 1013.6 |
| 20260505082704 | 10 | 312 | 1.6 | 3.2 | 0.00 | 0.00 | 0.00 | 88 | 1013.5 |
| 20260505081804 | 10 | 293 | 1.6 | 4.8 | 0.00 | 0.00 | 0.00 | 87 | 1013.5 |
| 20260505080904 | 10 | 288 | 1.6 | 3.2 | 0.00 | 0.00 | 0.00 | 89 | 1013.7 |
| 20260505080004 | 10 | 302 | 1.6 | 4.8 | 0.00 | 0.00 | 0.00 | 89 | 1013.4 |
| 20260505075404 | 10 | 242 | 1.6 | 4.8 | 0.00 | 0.00 | 0.00 | 91 | 1013.6 |
| 20260505074504 | 9 | 201 | 0.0 | 3.2 | 0.00 | 0.00 | 0.00 | 93 | 1013.6 |
| 20260505073604 | 8 | 212 | 0.0 | 3.2 | 0.00 | 0.00 | 0.00 | 94 | 1013.6 |
| 20260505072704 | 8 | 221 | 0.0 | 1.6 | 0.00 | 0.00 | 0.00 | 96 | 1013.5 |
| 20260505071804 | 8 | 242 | 0.0 | 3.2 | 0.00 | 0.00 | 0.00 | 97 | 1013.6 |
| 20260505070904 | 8 | 220 | 0.0 | 3.2 | 0.00 | 0.00 | 0.00 | 97 | 1013.7 |